Greensboro, NC

1:36 PM EST on February 23, 2017 (GMT -0500)
Piedmont Triad International

Weather History for KGSO - April, 2012

Change the Weather History Date:

Sunday, April 8, 2012

  Actual Average Record
Temperature  
Mean Temperature 59 °F 57 °F  
Max Temperature 76 °F 68 °F 88 °F (1929)
Min Temperature 42 °F 45 °F 25 °F (2007)
Degree Days  
Heating Degree Days 6 9  
Month to date heating degree days 41 79  
Since 1 July heating degree days 2669 3404  
Cooling Degree Days 0 1  
Month to date cooling degree days 8 7  
Year to date cooling degree days 37 12  
Growing Degree Days 9 (Base 50)    
Moisture  
Dew Point 35 °F    
Average Humidity 52    
Maximum Humidity 82    
Minimum Humidity 22    
Precipitation  
Precipitation 0.00 in 0.12 in 1.50 in (1940)
Month to date precipitation 0.64 0.97  
Year to date precipitation 7.23 10.72  
Snow  
Snow 0.00 in 0.00 in T in (1982)
Month to date snowfall 0.0 0.1  
Since 1 July snowfall 1.6 7.6  
Snow Depth 0.00 in    
Sea Level Pressure  
Sea Level Pressure 30.04 in    
Wind  
Wind Speed 7 mph (WNW)    
Max Wind Speed 20 mph    
Max Gust Speed 25 mph    
Visibility 10 miles    
Events      
T = Trace of Precipitation, MM = Missing Value Source: NWS Daily Summary

Daily Weather History Graph

Daily Weather History Graph

Search for Another Location

Airport or City:

Trip Planner

Search our weather history database for the weather conditions in past years. The results will help you decide how hot, cold, wet, or windy it might be!

Date:

Astronomy

Apr. 08, 2012 Rise Set
Actual Time 6:55 AM EDT 7:48 PM EDT
Civil Twilight 6:29 AM EDT 8:14 PM EDT
Nautical Twilight 5:58 AM EDT 8:45 PM EDT
Astronomical Twilight 5:26 AM EDT 9:17 PM EDT
Moon 10:26 PM EDT (4/8) 7:55 AM EDT (4/8)
Length of Visible Light 13h 44m
Length of Day
12h 52m
Waning Gibbous, 95% of the Moon is Illuminated
Apr 8
Waning Gibbous
Apr 13
Last Quarter
Apr 21
New
Apr 29
First Quarter
May 5
Full

Hourly Weather History & Observations

Time (EDT) Temp. Dew Point Humidity Pressure Visibility Wind Dir Wind Speed Gust Speed Precip Events Conditions
12:54 AM 54.0 °F 33.1 °F 45% 30.13 in 10.0 mi North 3.5 mph - N/A   Clear
1:54 AM 48.0 °F 35.1 °F 61% 30.13 in 10.0 mi Calm Calm - N/A   Clear
2:54 AM 46.0 °F 37.0 °F 71% 30.10 in 10.0 mi Calm Calm - N/A   Clear
3:54 AM 45.0 °F 34.0 °F 65% 30.09 in 10.0 mi Calm Calm - N/A   Clear
4:54 AM 46.0 °F 35.1 °F 66% 30.10 in 10.0 mi Calm Calm - N/A   Clear
5:54 AM 44.1 °F 37.0 °F 76% 30.10 in 10.0 mi Calm Calm - N/A   Clear
6:54 AM 43.0 °F 37.0 °F 80% 30.12 in 10.0 mi Calm Calm - N/A   Clear
7:54 AM 46.0 °F 41.0 °F 83% 30.14 in 10.0 mi Calm Calm - N/A   Clear
8:54 AM 51.1 °F 42.1 °F 71% 30.13 in 10.0 mi Calm Calm - N/A   Mostly Cloudy
9:54 AM 61.0 °F 30.9 °F 32% 30.12 in 10.0 mi WNW 4.6 mph - N/A   Mostly Cloudy
10:54 AM 64.0 °F 26.1 °F 24% 30.11 in 10.0 mi Variable 5.8 mph - N/A   Scattered Clouds
11:54 AM 68.0 °F 30.9 °F 25% 30.07 in 10.0 mi WSW 10.4 mph - N/A   Scattered Clouds
12:54 PM 70.0 °F 28.9 °F 22% 30.05 in 10.0 mi West 10.4 mph 20.7 mph N/A   Partly Cloudy
1:54 PM 71.1 °F 30.0 °F 22% 30.02 in 10.0 mi West 16.1 mph 24.2 mph N/A   Partly Cloudy
2:54 PM 72.0 °F 33.1 °F 24% 29.99 in 10.0 mi WSW 10.4 mph 23.0 mph N/A   Partly Cloudy
3:54 PM 73.0 °F 36.0 °F 26% 29.95 in 10.0 mi SW 13.8 mph 21.9 mph N/A   Partly Cloudy
4:54 PM 75.0 °F 37.0 °F 25% 29.93 in 10.0 mi West 12.7 mph 20.7 mph N/A   Partly Cloudy
5:54 PM 73.9 °F 37.9 °F 27% 29.92 in 10.0 mi WNW 11.5 mph - N/A   Partly Cloudy
6:54 PM 73.0 °F 37.0 °F 27% 29.92 in 10.0 mi NW 17.3 mph - N/A   Partly Cloudy
7:54 PM 66.9 °F 37.9 °F 34% 29.93 in 10.0 mi WNW 9.2 mph - N/A   Partly Cloudy
8:54 PM 66.9 °F 36.0 °F 32% 29.95 in 10.0 mi NW 9.2 mph - N/A   Partly Cloudy
9:54 PM 64.9 °F 33.1 °F 31% 29.96 in 10.0 mi NW 11.5 mph - N/A   Clear
10:54 PM 64.0 °F 33.1 °F 31% 29.96 in 10.0 mi NW 11.5 mph - N/A   Partly Cloudy
11:54 PM 60.1 °F 34.0 °F 38% 29.97 in 10.0 mi NW 9.2 mph - N/A   Clear